| time (UTC) | temp C | wind direction | speed KPH | gust KPH | rain 1hr cm | rain 24hr cm | rain mn cm | humidity % | barometer mb |
| 20260506023050 | 0 | 189 | 0.0 | 1.6 | 0.00 | 0.03 | 0.00 | 1 | 1014.4 |
| 20260506021555 | 0 | 189 | 0.0 | 1.6 | 0.00 | 0.03 | 0.00 | 1 | 1014.4 |
| 20260506020041 | 0 | 189 | 0.0 | 0.0 | 0.00 | 0.03 | 0.00 | 1 | 1014.5 |
| 20260506014536 | 0 | 189 | 0.0 | 0.0 | 0.00 | 0.03 | 0.00 | 1 | 1014.4 |
| 20260506013032 | 0 | 212 | 0.0 | 0.0 | 0.00 | 0.03 | 0.00 | 1 | 1014.5 |
| 20260506011531 | 0 | 212 | 0.0 | 1.6 | 0.00 | 0.03 | 0.00 | 1 | 1014.4 |
| 20260506010024 | 0 | 189 | 0.0 | 0.0 | 0.00 | 0.03 | 0.00 | 1 | 1014.4 |
| 20260506004518 | 0 | 189 | 0.0 | 0.0 | 0.00 | 0.03 | 0.00 | 1 | 1014.4 |
| 20260506003015 | 0 | 212 | 0.0 | 0.0 | 0.00 | 0.03 | 0.00 | 1 | 1014.5 |
| 20260506001513 | 0 | 212 | 0.0 | 0.0 | 0.00 | 0.03 | 0.00 | 1 | 1014.5 |
| 20260506000006 | 1 | 212 | 0.0 | 1.6 | 0.00 | 0.03 | 0.00 | 1 | 1014.5 |
| 20260505234505 | 1 | 212 | 0.0 | 0.0 | 0.00 | 0.03 | 0.00 | 4 | 1014.5 |
| 20260505233057 | 1 | 212 | 0.0 | 0.0 | 0.00 | 0.03 | 0.00 | 7 | 1014.5 |
| 20260505231554 | 1 | 189 | 0.0 | 1.6 | 0.00 | 0.03 | 0.00 | 7 | 1014.4 |
| 20260505230051 | 1 | 189 | 0.0 | 1.6 | 0.00 | 0.03 | 0.00 | 12 | 1014.4 |
| 20260505224545 | 2 | 189 | 0.0 | 1.6 | 0.00 | 0.03 | 0.00 | 14 | 1014.5 |
| 20260505223046 | 2 | 189 | 0.0 | 0.0 | 0.00 | 0.03 | 0.00 | 14 | 1014.4 |
| 20260505221536 | 2 | 189 | 0.0 | 1.6 | 0.00 | 0.03 | 0.00 | 15 | 1014.4 |
| 20260505220032 | 2 | 189 | 0.0 | 3.2 | 0.00 | 0.03 | 0.00 | 17 | 1014.4 |
| 20260505214534 | 2 | 189 | 0.0 | 1.6 | 0.00 | 0.03 | 0.03 | 22 | 1014.3 |
| 20260505213022 | 3 | 189 | 0.0 | 1.6 | 0.00 | 0.03 | 0.03 | 25 | 1014.4 |
| 20260505211534 | 3 | 189 | 0.0 | 3.2 | 0.00 | 0.03 | 0.03 | 26 | 1014.4 |
| 20260505210014 | 3 | 189 | 0.0 | 1.6 | 0.00 | 0.03 | 0.03 | 30 | 1014.5 |
| 20260505204509 | 3 | 189 | 0.0 | 6.4 | 0.00 | 0.03 | 0.03 | 33 | 1014.3 |
| 20260505203005 | 3 | 189 | 0.0 | 1.6 | 0.00 | 0.03 | 0.03 | 37 | 1014.3 |
| 20260505201501 | 4 | 189 | 0.0 | 3.2 | 0.00 | 0.03 | 0.03 | 39 | 1014.3 |
| 20260505200058 | 4 | 189 | 0.0 | 1.6 | 0.00 | 0.03 | 0.03 | 39 | 1014.4 |
| 20260505194552 | 5 | 188 | 0.0 | 6.4 | 0.00 | 0.03 | 0.03 | 39 | 1014.2 |
| 20260505193047 | 5 | 160 | 0.0 | 6.4 | 0.00 | 0.03 | 0.03 | 40 | 1014.2 |
| 20260505191550 | 5 | 212 | 0.0 | 6.4 | 0.00 | 0.03 | 0.03 | 40 | 1014.1 |
| 20260505190041 | 6 | 160 | 1.6 | 9.7 | 0.00 | 0.03 | 0.03 | 38 | 1014.0 |
| 20260505184545 | 6 | 212 | 1.6 | 6.4 | 0.00 | 0.03 | 0.03 | 38 | 1013.9 |
| 20260505183038 | 7 | 196 | 3.2 | 11.3 | 0.00 | 0.03 | 0.03 | 39 | 1013.7 |
| 20260505181526 | 7 | 212 | 3.2 | 14.5 | 0.00 | 0.03 | 0.03 | 39 | 1013.7 |
| 20260505180022 | 7 | 141 | 6.4 | 17.7 | 0.00 | 0.03 | 0.03 | 39 | 1013.7 |
| 20260505174517 | 7 | 150 | 8.0 | 14.5 | 0.00 | 0.03 | 0.03 | 39 | 1013.8 |
| 20260505173016 | 8 | 138 | 6.4 | 17.7 | 0.00 | 0.03 | 0.03 | 40 | 1013.8 |
| 20260505171509 | 9 | 212 | 3.2 | 12.9 | 0.00 | 0.03 | 0.03 | 39 | 1013.8 |
| 20260505170010 | 8 | 194 | 6.4 | 14.5 | 0.00 | 0.03 | 0.03 | 38 | 1013.7 |
| 20260505164603 | 8 | 212 | 3.2 | 19.3 | 0.00 | 0.03 | 0.03 | 39 | 1013.7 |
| 20260505163055 | 8 | 149 | 4.8 | 20.9 | 0.00 | 0.03 | 0.03 | 39 | 1013.6 |
| 20260505161551 | 9 | 177 | 6.4 | 16.1 | 0.00 | 0.03 | 0.03 | 37 | 1013.6 |
| 20260505153045 | 9 | 212 | 3.2 | 17.7 | 0.00 | 0.03 | 0.03 | 35 | 1013.8 |
| 20260505151540 | 8 | 201 | 6.4 | 17.7 | 0.00 | 0.03 | 0.03 | 35 | 1013.8 |
| 20260505124551 | 8 | 150 | 9.7 | 22.5 | 0.00 | 0.03 | 0.03 | 37 | 1013.8 |
| 20260505123046 | 8 | 140 | 9.7 | 19.3 | 0.00 | 0.03 | 0.03 | 35 | 1013.6 |
| 20260505121547 | 8 | 103 | 4.8 | 16.1 | 0.00 | 0.03 | 0.03 | 35 | 1013.5 |
| 20260505120037 | 9 | 144 | 6.4 | 14.5 | 0.00 | 0.03 | 0.03 | 33 | 1013.4 |
| 20260505114532 | 8 | 124 | 4.8 | 17.7 | 0.00 | 0.03 | 0.03 | 34 | 1013.5 |
| 20260505113038 | 8 | 221 | 3.2 | 12.9 | 0.00 | 0.03 | 0.03 | 31 | 1013.4 |
| 20260505111538 | 7 | 79 | 3.2 | 12.9 | 0.00 | 0.03 | 0.03 | 31 | 1013.4 |
| 20260505101519 | 6 | 156 | 4.8 | 14.5 | 0.00 | 0.03 | 0.03 | 30 | 1013.5 |
| 20260505100003 | 6 | 153 | 3.2 | 16.1 | 0.00 | 0.03 | 0.03 | 32 | 1013.5 |
| 20260505094605 | 7 | 212 | 3.2 | 8.0 | 0.00 | 0.03 | 0.03 | 35 | 1013.4 |
| 20260505093056 | 7 | 185 | 1.6 | 9.7 | 0.00 | 0.03 | 0.03 | 34 | 1013.4 |
| 20260505091550 | 7 | 193 | 0.0 | 8.0 | 0.00 | 0.03 | 0.03 | 32 | 1013.2 |
| 20260505090050 | 7 | 198 | 0.0 | 8.0 | 0.00 | 0.03 | 0.03 | 32 | 1013.2 |
| 20260505084541 | 6 | 185 | 0.0 | 6.4 | 0.00 | 0.03 | 0.03 | 32 | 1013.0 |
| 20260505083043 | 6 | 144 | 0.0 | 6.4 | 0.03 | 0.03 | 0.03 | 30 | 1013.0 |
| 20260505081532 | 6 | 165 | 1.6 | 4.8 | 0.03 | 0.03 | 0.03 | 25 | 1012.9 |
| 20260505080031 | 6 | 194 | 0.0 | 8.0 | 0.03 | 0.03 | 0.03 | 21 | 1012.9 |
| 20260505074524 | 6 | 202 | 0.0 | 6.4 | 0.03 | 0.03 | 0.03 | 15 | 1012.9 |
| 20260505073019 | 6 | 228 | 0.0 | 1.6 | 0.00 | 0.00 | 0.00 | 9 | 1012.9 |
| 20260505071515 | 5 | 221 | 0.0 | 8.0 | 0.00 | 0.00 | 0.00 | 6 | 1012.9 |
| 20260505070020 | 5 | 227 | 0.0 | 3.2 | 0.00 | 0.00 | 0.00 | 1 | 1012.9 |
| 20260505064511 | 4 | 249 | 0.0 | 6.4 | 0.00 | 0.00 | 0.00 | 1 | 1012.9 |
| 20260505063002 | 3 | 247 | 1.6 | 4.8 | 0.00 | 0.00 | 0.00 | 1 | 1013.0 |
| 20260505061618 | 2 | 246 | 0.0 | 1.6 | 0.00 | 0.00 | 0.00 | 1 | 1013.1 |
| 20260505060057 | 2 | 245 | 0.0 | 0.0 | 0.00 | 0.00 | 0.00 | 1 | 1013.0 |
| 20260505054554 | 1 | 245 | 0.0 | 0.0 | 0.00 | 0.00 | 0.00 | 1 | 1013.0 |
| 20260505053044 | 0 | 245 | 0.0 | 1.6 | 0.00 | 0.00 | 0.00 | 1 | 1013.0 |
| 20260505051540 | 0 | 245 | 0.0 | 0.0 | 0.00 | 0.00 | 0.00 | 1 | 1013.0 |
| 20260505041523 | 0 | 244 | 0.0 | 1.6 | 0.00 | 0.00 | 0.00 | 1 | 1012.4 |
| 20260505040035 | 0 | 245 | 0.0 | 1.6 | 0.00 | 0.00 | 0.00 | 1 | 1012.2 |
| 20260505034518 | 0 | 245 | 0.0 | 1.6 | 0.00 | 0.00 | 0.00 | 1 | 1012.4 |
| 20260505033014 | 0 | 244 | 0.0 | 0.0 | 0.00 | 0.00 | 0.00 | 1 | 1012.5 |
| 20260505031505 | 0 | 245 | 0.0 | 0.0 | 0.00 | 0.00 | 0.00 | 1 | 1012.6 |
| 20260505024556 | 0 | 245 | 0.0 | 0.0 | 0.00 | 0.00 | 0.00 | 1 | 1012.6 |